N59E KSBA-KASE

Flight info

Callsign N59E
Flight time 1h 40m
Altitude 45000
Route MISHN5 NNAVY LAS BAWER ERRDA LOYYD1
Aircraft C750/M-SBDE3FGHRWXY/S

Departure

Time 2026-04-27 19:17
Airport Santa Barbara Municipal Airport (KSBA)

Arrival

Time 2026-04-27 20:58
Airport Aspen-Pitkin County Airport (Sardy Field) (KASE)
Time Latitude Longitude Altitude Speed Heading
2026-04-27 19:01 34.43255 -119.83517 29 ft 0 kts 72°
2026-04-27 19:13 34.43255 -119.83515 29 ft 0 kts 72°
2026-04-27 19:14 34.43256 -119.83514 29 ft 0 kts 72°
2026-04-27 19:14 34.43262 -119.83490 29 ft 6 kts 72°
2026-04-27 19:14 34.43251 -119.83433 29 ft 9 kts 179°
2026-04-27 19:14 34.43222 -119.83472 29 ft 0 kts 251°
2026-04-27 19:15 34.43221 -119.83478 29 ft 1 kts 251°
2026-04-27 19:15 34.43213 -119.83504 29 ft 5 kts 251°
2026-04-27 19:16 34.43171 -119.83534 29 ft 10 kts 179°
2026-04-27 19:16 34.43113 -119.83534 28 ft 14 kts 179°
2026-04-27 19:16 34.42935 -119.83531 26 ft 21 kts 178°
2026-04-27 19:16 34.42805 -119.83504 25 ft 17 kts 227°
2026-04-27 19:17 34.42789 -119.83580 25 ft 0 kts 268°
2026-04-27 19:17 34.42783 -119.83714 26 ft 60 kts 263°
2026-04-27 19:17 34.42760 -119.84690 42 ft 162 kts 270°
2026-04-27 19:17 34.42721 -119.86150 892 ft 188 kts 257°
2026-04-27 19:18 34.42543 -119.87702 2397 ft 195 kts 268°
2026-04-27 19:18 34.42421 -119.89220 4019 ft 187 kts 266°
2026-04-27 19:18 34.42297 -119.90733 5323 ft 188 kts 266°
2026-04-27 19:18 34.41825 -119.92158 6460 ft 199 kts 227°
2026-04-27 19:19 34.40610 -119.92936 7670 ft 204 kts 204°
2026-04-27 19:19 34.39344 -119.93610 8836 ft 205 kts 211°
2026-04-27 19:19 34.38092 -119.94363 9956 ft 207 kts 212°
2026-04-27 19:19 34.36828 -119.95139 11080 ft 208 kts 213°
2026-04-27 19:20 34.35561 -119.95911 12177 ft 209 kts 210°
2026-04-27 19:20 34.34089 -119.96062 13163 ft 231 kts 169°
2026-04-27 19:20 34.32580 -119.95297 14154 ft 237 kts 164°
2026-04-27 19:20 34.31069 -119.94564 15096 ft 240 kts 166°
2026-04-27 19:21 34.29512 -119.93826 16024 ft 244 kts 166°
2026-04-27 19:21 34.27925 -119.93074 16933 ft 247 kts 166°
2026-04-27 19:21 34.26334 -119.92320 17797 ft 251 kts 166°
2026-04-27 19:21 34.24694 -119.91546 18546 ft 261 kts 166°
2026-04-27 19:22 34.22912 -119.90711 19070 ft 282 kts 166°
2026-04-27 19:22 34.20979 -119.89803 19246 ft 315 kts 165°
2026-04-27 19:22 34.18891 -119.88660 19681 ft 344 kts 151°
2026-04-27 19:22 34.17196 -119.86495 20196 ft 371 kts 123°
2026-04-27 19:23 34.16291 -119.83531 20478 ft 398 kts 98°
2026-04-27 19:23 34.16357 -119.80102 20901 ft 415 kts 85°
2026-04-27 19:23 34.16063 -119.76636 21324 ft 431 kts 103°
2026-04-27 19:23 34.15551 -119.72968 21617 ft 449 kts 98°
2026-04-27 19:24 34.15046 -119.69227 22288 ft 457 kts 99°
2026-04-27 19:24 34.14563 -119.65455 23065 ft 460 kts 100°
2026-04-27 19:24 34.14068 -119.61649 23767 ft 465 kts 99°
2026-04-27 19:24 34.13564 -119.57732 24431 ft 470 kts 97°
2026-04-27 19:25 34.13684 -119.53827 25041 ft 475 kts 77°
2026-04-27 19:25 34.14388 -119.49895 25711 ft 479 kts 78°
2026-04-27 19:25 34.15068 -119.45959 26348 ft 482 kts 76°
2026-04-27 19:25 34.15734 -119.42015 26931 ft 487 kts 77°
2026-04-27 19:26 34.16429 -119.37987 27473 ft 493 kts 77°
2026-04-27 19:26 34.17120 -119.33911 28026 ft 497 kts 77°
2026-04-27 19:26 34.17828 -119.29761 28476 ft 504 kts 78°
2026-04-27 19:26 34.18529 -119.25609 28977 ft 508 kts 77°
2026-04-27 19:27 34.19232 -119.21423 29504 ft 511 kts 77°
2026-04-27 19:27 34.19957 -119.17153 29953 ft 516 kts 78°
2026-04-27 19:27 34.20678 -119.12865 30407 ft 520 kts 78°
2026-04-27 19:27 34.21386 -119.08511 30696 ft 527 kts 73°
2026-04-27 19:28 34.22977 -119.04514 31017 ft 525 kts 51°
2026-04-27 19:28 34.25265 -119.01029 31428 ft 528 kts 50°
2026-04-27 19:28 34.27396 -118.97349 31864 ft 532 kts 52°
2026-04-27 19:28 34.29508 -118.93593 32234 ft 537 kts 52°
2026-04-27 19:29 34.31591 -118.89826 32967 ft 532 kts 53°
2026-04-27 19:29 34.33635 -118.86111 33564 ft 530 kts 53°
2026-04-27 19:29 34.35655 -118.82430 34136 ft 529 kts 52°
2026-04-27 19:29 34.37727 -118.78671 34502 ft 531 kts 52°
2026-04-27 19:30 34.39827 -118.74847 34926 ft 531 kts 52°
2026-04-27 19:30 34.41873 -118.71122 35383 ft 529 kts 53°
2026-04-27 19:30 34.43909 -118.67399 35754 ft 528 kts 53°
2026-04-27 19:30 34.45956 -118.63660 36151 ft 530 kts 53°
2026-04-27 19:31 34.48006 -118.59904 36566 ft 531 kts 53°
2026-04-27 19:31 34.50045 -118.56178 37024 ft 530 kts 53°
2026-04-27 19:31 34.52114 -118.52377 37454 ft 530 kts 53°
2026-04-27 19:31 34.54129 -118.48674 37874 ft 530 kts 54°
2026-04-27 19:32 34.56191 -118.44894 38261 ft 530 kts 53°
2026-04-27 19:32 34.58221 -118.41152 38709 ft 529 kts 54°
2026-04-27 19:32 34.60257 -118.37404 39176 ft 528 kts 54°
2026-04-27 19:32 34.62281 -118.33675 39503 ft 529 kts 54°
2026-04-27 19:33 34.64307 -118.29936 39885 ft 527 kts 54°
2026-04-27 19:33 34.65654 -118.27448 40143 ft 527 kts 54°
2026-04-27 19:33 34.68349 -118.22465 40602 ft 526 kts 54°
2026-04-27 19:33 34.70358 -118.18741 40911 ft 527 kts 54°
2026-04-27 19:34 34.72378 -118.15005 41213 ft 527 kts 54°
2026-04-27 19:34 34.74419 -118.11218 41604 ft 525 kts 54°
2026-04-27 19:34 34.76425 -118.07495 41910 ft 525 kts 54°
2026-04-27 19:34 34.78434 -118.03763 42204 ft 525 kts 55°
2026-04-27 19:35 34.80452 -118.00005 42511 ft 524 kts 54°
2026-04-27 19:35 34.82459 -117.96267 42785 ft 524 kts 55°
2026-04-27 19:35 34.84435 -117.92579 43087 ft 523 kts 55°
2026-04-27 19:35 34.86451 -117.88821 43342 ft 524 kts 55°
2026-04-27 19:36 34.88450 -117.85081 43640 ft 523 kts 55°
2026-04-27 19:36 34.90430 -117.81377 43911 ft 522 kts 55°
2026-04-27 19:36 34.92429 -117.77639 44173 ft 521 kts 55°
2026-04-27 19:36 34.94404 -117.73933 44417 ft 521 kts 55°
2026-04-27 19:37 34.96410 -117.70171 44646 ft 521 kts 55°
2026-04-27 19:37 34.98386 -117.66457 44912 ft 520 kts 55°
2026-04-27 19:37 35.00362 -117.62743 44981 ft 523 kts 55°
2026-04-27 19:38 35.04351 -117.55227 44993 ft 530 kts 55°
2026-04-27 19:38 35.08409 -117.47568 44983 ft 537 kts 55°
2026-04-27 19:39 35.12492 -117.39838 44983 ft 544 kts 55°
2026-04-27 19:39 35.16619 -117.32025 44961 ft 548 kts 56°
2026-04-27 19:40 35.20698 -117.24264 44959 ft 546 kts 56°
2026-04-27 19:40 35.24815 -117.16426 44953 ft 542 kts 56°
2026-04-27 19:41 35.28880 -117.08671 44955 ft 540 kts 56°
2026-04-27 19:41 35.32948 -117.00887 44953 ft 537 kts 56°
2026-04-27 19:42 35.37000 -116.93117 44956 ft 536 kts 56°
2026-04-27 19:42 35.41011 -116.85411 44955 ft 535 kts 56°
2026-04-27 19:43 35.45027 -116.77678 44953 ft 535 kts 56°
2026-04-27 19:43 35.49031 -116.69946 44960 ft 534 kts 56°
2026-04-27 19:44 35.53044 -116.62183 44960 ft 535 kts 56°
2026-04-27 19:44 35.57041 -116.54438 44958 ft 535 kts 56°
2026-04-27 19:45 35.61047 -116.46656 44958 ft 535 kts 56°
2026-04-27 19:45 35.65037 -116.38884 44962 ft 536 kts 56°
2026-04-27 19:46 35.69024 -116.31107 44952 ft 536 kts 57°
2026-04-27 19:46 35.73027 -116.23275 44944 ft 536 kts 57°
2026-04-27 19:47 35.77004 -116.15475 44957 ft 535 kts 57°
2026-04-27 19:47 35.80983 -116.07659 44968 ft 535 kts 57°
2026-04-27 19:48 35.84961 -115.99822 44955 ft 535 kts 57°
2026-04-27 19:48 35.88905 -115.92031 44960 ft 534 kts 57°
2026-04-27 19:49 35.92857 -115.84212 44970 ft 535 kts 57°
2026-04-27 19:49 35.96843 -115.76315 44960 ft 535 kts 57°
2026-04-27 19:50 36.00780 -115.68484 44970 ft 535 kts 57°
2026-04-27 19:50 36.04730 -115.60611 44962 ft 536 kts 57°
2026-04-27 19:51 36.08698 -115.52694 44983 ft 537 kts 57°
2026-04-27 19:51 36.12633 -115.44814 44998 ft 537 kts 57°
2026-04-27 19:52 36.16587 -115.36881 44989 ft 538 kts 57°
2026-04-27 19:52 36.20506 -115.29001 44972 ft 538 kts 58°
2026-04-27 19:53 36.26429 -115.17056 44951 ft 538 kts 57°
2026-04-27 19:53 36.30356 -115.09120 44950 ft 538 kts 58°
2026-04-27 19:54 36.34269 -115.01180 44955 ft 538 kts 58°
2026-04-27 19:54 36.38194 -114.93200 44950 ft 538 kts 58°
2026-04-27 19:55 36.42115 -114.85223 44945 ft 538 kts 58°
2026-04-27 19:55 36.45978 -114.77331 44947 ft 538 kts 58°
2026-04-27 19:56 36.49923 -114.69260 44938 ft 539 kts 58°
2026-04-27 19:56 36.53822 -114.61264 44937 ft 539 kts 58°
2026-04-27 19:57 36.57724 -114.53234 44952 ft 539 kts 58°
2026-04-27 19:57 36.61626 -114.45192 44953 ft 539 kts 58°
2026-04-27 19:58 36.65481 -114.37225 44949 ft 539 kts 58°
2026-04-27 19:58 36.69408 -114.29095 44929 ft 539 kts 58°
2026-04-27 19:59 36.73287 -114.21040 44936 ft 538 kts 59°
2026-04-27 19:59 36.77125 -114.13055 44941 ft 538 kts 59°
2026-04-27 20:00 36.81002 -114.04962 44943 ft 538 kts 59°
2026-04-27 20:00 36.84837 -113.96944 44953 ft 537 kts 59°
2026-04-27 20:01 36.88678 -113.88890 44964 ft 537 kts 59°
2026-04-27 20:01 36.92524 -113.80806 44972 ft 538 kts 59°
2026-04-27 20:02 36.96343 -113.72767 44981 ft 538 kts 59°
2026-04-27 20:02 37.00178 -113.64664 44978 ft 538 kts 59°
2026-04-27 20:03 37.03997 -113.56576 44980 ft 539 kts 59°
2026-04-27 20:03 37.07843 -113.48423 44979 ft 539 kts 59°
2026-04-27 20:04 37.11687 -113.40248 44982 ft 540 kts 58°
2026-04-27 20:04 37.15503 -113.32108 44975 ft 540 kts 59°
2026-04-27 20:05 37.19352 -113.23881 44984 ft 539 kts 59°
2026-04-27 20:05 37.23152 -113.15735 44989 ft 539 kts 59°
2026-04-27 20:06 37.26935 -113.07604 44985 ft 538 kts 59°
2026-04-27 20:06 37.30753 -112.99390 44976 ft 539 kts 60°
2026-04-27 20:07 37.34526 -112.91235 44980 ft 538 kts 59°
2026-04-27 20:07 37.38334 -112.82994 44982 ft 538 kts 59°
2026-04-27 20:08 37.42132 -112.74755 44980 ft 538 kts 60°
2026-04-27 20:08 37.45912 -112.66525 44979 ft 538 kts 59°
2026-04-27 20:09 37.49654 -112.58366 44989 ft 538 kts 59°
2026-04-27 20:09 37.53425 -112.50119 45007 ft 538 kts 59°
2026-04-27 20:10 37.57190 -112.41868 45016 ft 539 kts 60°
2026-04-27 20:10 37.60940 -112.33630 45016 ft 539 kts 60°
2026-04-27 20:11 37.64591 -112.25370 45017 ft 539 kts 62°
2026-04-27 20:11 37.68164 -112.16986 45018 ft 539 kts 62°
2026-04-27 20:12 37.71696 -112.08614 45025 ft 538 kts 62°
2026-04-27 20:12 37.75240 -112.00203 45035 ft 538 kts 62°
2026-04-27 20:13 37.78770 -111.91796 45043 ft 538 kts 62°
2026-04-27 20:13 37.82286 -111.83401 45043 ft 539 kts 62°
2026-04-27 20:14 37.85808 -111.74977 45026 ft 540 kts 62°
2026-04-27 20:14 37.89331 -111.66522 45022 ft 540 kts 62°
2026-04-27 20:15 37.92850 -111.58061 45033 ft 541 kts 63°
2026-04-27 20:15 37.96366 -111.49572 45021 ft 541 kts 62°
2026-04-27 20:16 37.99861 -111.41112 45012 ft 542 kts 62°
2026-04-27 20:16 38.03389 -111.32561 45004 ft 543 kts 63°
2026-04-27 20:17 38.06885 -111.24061 45009 ft 542 kts 63°
2026-04-27 20:17 38.10394 -111.15493 44999 ft 543 kts 63°
2026-04-27 20:18 38.13882 -111.06961 44994 ft 542 kts 63°
2026-04-27 20:18 38.17370 -110.98416 44990 ft 542 kts 63°
2026-04-27 20:19 38.20849 -110.89858 44991 ft 542 kts 63°
2026-04-27 20:19 38.24322 -110.81300 44991 ft 542 kts 63°
2026-04-27 20:20 38.27783 -110.72734 44987 ft 542 kts 63°
2026-04-27 20:20 38.31245 -110.64156 44995 ft 542 kts 63°
2026-04-27 20:21 38.34707 -110.55549 44991 ft 543 kts 63°
2026-04-27 20:21 38.38170 -110.46911 44987 ft 543 kts 63°
2026-04-27 20:22 38.41607 -110.38322 45002 ft 543 kts 63°
2026-04-27 20:22 38.45075 -110.29632 44978 ft 543 kts 63°
2026-04-27 20:23 38.48532 -110.20937 44984 ft 543 kts 63°
2026-04-27 20:23 38.51928 -110.12357 44988 ft 543 kts 65°
2026-04-27 20:24 38.54454 -110.03195 44998 ft 541 kts 78°
2026-04-27 20:24 38.56233 -109.93803 44987 ft 541 kts 78°
2026-04-27 20:25 38.58023 -109.84417 44987 ft 541 kts 78°
2026-04-27 20:25 38.59787 -109.75122 44797 ft 533 kts 78°
2026-04-27 20:26 38.60652 -109.70537 44016 ft 534 kts 78°
2026-04-27 20:26 38.61530 -109.65889 43322 ft 532 kts 78°
2026-04-27 20:26 38.62393 -109.61296 42643 ft 530 kts 78°
2026-04-27 20:26 38.63263 -109.56662 41955 ft 529 kts 78°
2026-04-27 20:27 38.64106 -109.52141 41283 ft 527 kts 78°
2026-04-27 20:27 38.64970 -109.47521 40597 ft 525 kts 78°
2026-04-27 20:27 38.65807 -109.43032 39934 ft 524 kts 78°
2026-04-27 20:27 38.66662 -109.38455 39258 ft 522 kts 78°
2026-04-27 20:28 38.67504 -109.33888 38582 ft 520 kts 78°
2026-04-27 20:28 38.68335 -109.29417 37981 ft 518 kts 78°
2026-04-27 20:28 38.69169 -109.24899 37381 ft 517 kts 78°
2026-04-27 20:28 38.69720 -109.21911 36983 ft 516 kts 78°
2026-04-27 20:29 38.70821 -109.15913 36179 ft 514 kts 78°
2026-04-27 20:29 38.71637 -109.11466 35564 ft 513 kts 78°
2026-04-27 20:29 38.72453 -109.06993 34931 ft 512 kts 78°
2026-04-27 20:29 38.73258 -109.02601 34320 ft 511 kts 78°
2026-04-27 20:30 38.74064 -108.98151 33664 ft 509 kts 78°
2026-04-27 20:30 38.74876 -108.93684 32939 ft 507 kts 78°
2026-04-27 20:30 38.75673 -108.89314 32236 ft 504 kts 78°
2026-04-27 20:30 38.76456 -108.84979 31569 ft 499 kts 78°
2026-04-27 20:31 38.77240 -108.80637 30946 ft 492 kts 78°
2026-04-27 20:31 38.78003 -108.76382 30331 ft 486 kts 78°
2026-04-27 20:31 38.78757 -108.72203 29676 ft 480 kts 78°
2026-04-27 20:31 38.79498 -108.68040 29022 ft 474 kts 78°
2026-04-27 20:32 38.80257 -108.63910 28355 ft 469 kts 76°
2026-04-27 20:32 38.81296 -108.59963 27700 ft 464 kts 68°
2026-04-27 20:32 38.82471 -108.56153 27058 ft 459 kts 69°
2026-04-27 20:32 38.83610 -108.52356 26404 ft 454 kts 69°
2026-04-27 20:33 38.84735 -108.48572 25752 ft 449 kts 69°
2026-04-27 20:33 38.85826 -108.44856 25148 ft 445 kts 69°
2026-04-27 20:33 38.86922 -108.41143 25055 ft 441 kts 69°
2026-04-27 20:33 38.88000 -108.37471 25050 ft 438 kts 69°
2026-04-27 20:34 38.89067 -108.33839 25048 ft 436 kts 70°
2026-04-27 20:34 38.90131 -108.30193 25057 ft 436 kts 70°
2026-04-27 20:34 38.91193 -108.26578 25050 ft 437 kts 70°
2026-04-27 20:34 38.92267 -108.22893 25057 ft 438 kts 70°
2026-04-27 20:35 38.93336 -108.19235 25058 ft 438 kts 70°
2026-04-27 20:35 38.94398 -108.15591 25064 ft 439 kts 70°
2026-04-27 20:35 38.95457 -108.11955 25064 ft 439 kts 70°
2026-04-27 20:35 38.96537 -108.08225 24425 ft 449 kts 70°
2026-04-27 20:36 38.97622 -108.04485 23765 ft 448 kts 70°
2026-04-27 20:36 38.98695 -108.00781 23116 ft 444 kts 70°
2026-04-27 20:36 38.99771 -107.97071 22462 ft 439 kts 70°
2026-04-27 20:36 39.00820 -107.93439 21804 ft 435 kts 70°
2026-04-27 20:37 39.01858 -107.89834 21149 ft 431 kts 70°
2026-04-27 20:37 39.02905 -107.86206 20503 ft 432 kts 70°
2026-04-27 20:37 39.03928 -107.82642 20070 ft 420 kts 70°
2026-04-27 20:37 39.04915 -107.79209 20009 ft 404 kts 70°
2026-04-27 20:38 39.05875 -107.75861 20026 ft 391 kts 70°
2026-04-27 20:38 39.06792 -107.72661 20018 ft 380 kts 70°
2026-04-27 20:38 39.07691 -107.69512 20021 ft 370 kts 70°
2026-04-27 20:38 39.08572 -107.66425 20056 ft 365 kts 70°
2026-04-27 20:39 39.09446 -107.63365 20074 ft 365 kts 70°
2026-04-27 20:39 39.10323 -107.60299 20070 ft 367 kts 70°
2026-04-27 20:39 39.11221 -107.57226 20084 ft 370 kts 70°
2026-04-27 20:39 39.12133 -107.54111 20087 ft 373 kts 69°
2026-04-27 20:40 39.13048 -107.50991 20090 ft 375 kts 70°
2026-04-27 20:40 39.13965 -107.47845 20093 ft 377 kts 70°
2026-04-27 20:40 39.14886 -107.44690 20106 ft 379 kts 69°
2026-04-27 20:40 39.15803 -107.41494 20111 ft 380 kts 72°
2026-04-27 20:41 39.16133 -107.38178 20128 ft 378 kts 93°
2026-04-27 20:41 39.16081 -107.34798 20119 ft 380 kts 92°
2026-04-27 20:41 39.16032 -107.31379 20099 ft 382 kts 93°
2026-04-27 20:41 39.15985 -107.27953 20103 ft 383 kts 93°
2026-04-27 20:42 39.15940 -107.24521 20104 ft 383 kts 93°
2026-04-27 20:42 39.15892 -107.21111 20103 ft 384 kts 93°
2026-04-27 20:42 39.15845 -107.17689 20114 ft 383 kts 93°
2026-04-27 20:42 39.15795 -107.14260 20105 ft 380 kts 93°
2026-04-27 20:43 39.15749 -107.10907 20097 ft 376 kts 93°
2026-04-27 20:43 39.15696 -107.07539 20085 ft 373 kts 93°
2026-04-27 20:43 39.15645 -107.04204 19456 ft 380 kts 93°
2026-04-27 20:43 39.15593 -107.00803 18759 ft 373 kts 93°
2026-04-27 20:44 39.15543 -106.97559 18123 ft 365 kts 93°
2026-04-27 20:44 39.15490 -106.94306 17485 ft 357 kts 93°
2026-04-27 20:44 39.15439 -106.91187 16861 ft 349 kts 93°
2026-04-27 20:44 39.15717 -106.88119 16208 ft 345 kts 70°
2026-04-27 20:45 39.16946 -106.85536 15618 ft 336 kts 47°
2026-04-27 20:45 39.18460 -106.83309 15138 ft 327 kts 50°
2026-04-27 20:45 39.19903 -106.81120 15102 ft 318 kts 49°
2026-04-27 20:45 39.21311 -106.78983 15059 ft 312 kts 49°
2026-04-27 20:46 39.22708 -106.76863 15047 ft 306 kts 49°
2026-04-27 20:46 39.24082 -106.74774 15057 ft 301 kts 49°
2026-04-27 20:46 39.25422 -106.72737 15060 ft 296 kts 49°
2026-04-27 20:46 39.26743 -106.70727 15058 ft 292 kts 49°
2026-04-27 20:47 39.28038 -106.68752 15055 ft 289 kts 49°
2026-04-27 20:47 39.29438 -106.66924 15021 ft 286 kts 32°
2026-04-27 20:47 39.31308 -106.66122 14767 ft 284 kts
2026-04-27 20:47 39.33218 -106.66640 14503 ft 277 kts 332°
2026-04-27 20:48 39.34985 -106.67655 14237 ft 280 kts 335°
2026-04-27 20:48 39.36785 -106.68578 14089 ft 278 kts 335°
2026-04-27 20:48 39.38585 -106.69496 14073 ft 278 kts 334°
2026-04-27 20:48 39.40065 -106.70995 14057 ft 270 kts 301°
2026-04-27 20:49 39.40665 -106.73222 14088 ft 263 kts 278°
2026-04-27 20:49 39.41069 -106.75532 14076 ft 265 kts 283°
2026-04-27 20:49 39.41542 -106.77853 14065 ft 264 kts 282°
2026-04-27 20:49 39.42006 -106.80108 14051 ft 263 kts 283°
2026-04-27 20:50 39.42475 -106.82378 14046 ft 258 kts 283°
2026-04-27 20:50 39.42937 -106.84607 14046 ft 251 kts 283°
2026-04-27 20:50 39.43378 -106.86750 14034 ft 246 kts 283°
2026-04-27 20:50 39.43818 -106.88846 14047 ft 241 kts 285°
2026-04-27 20:51 39.44677 -106.90688 14058 ft 239 kts 307°
2026-04-27 20:51 39.45721 -106.92335 14058 ft 236 kts 305°
2026-04-27 20:51 39.46743 -106.93990 14061 ft 233 kts 306°
2026-04-27 20:51 39.47458 -106.95847 13848 ft 235 kts 275°
2026-04-27 20:52 39.47157 -106.97849 13618 ft 231 kts 241°
2026-04-27 20:52 39.46012 -106.99322 13310 ft 233 kts 218°
2026-04-27 20:52 39.44785 -107.00648 13092 ft 231 kts 222°
2026-04-27 20:52 39.43594 -107.01994 13056 ft 222 kts 222°
2026-04-27 20:53 39.42440 -107.03295 12741 ft 213 kts 219°
2026-04-27 20:53 39.41107 -107.03901 12372 ft 206 kts 178°
2026-04-27 20:53 39.39786 -107.03321 12089 ft 200 kts 153°
2026-04-27 20:53 39.38717 -107.02234 11958 ft 189 kts 136°
2026-04-27 20:54 39.37151 -106.99824 11931 ft 164 kts 129°
2026-04-27 20:54 39.36484 -106.98667 11875 ft 159 kts 128°
2026-04-27 20:54 39.35788 -106.97478 11594 ft 171 kts 131°
2026-04-27 20:55 39.34977 -106.96316 11352 ft 179 kts 133°
2026-04-27 20:55 39.34125 -106.95088 10942 ft 195 kts 132°
2026-04-27 20:55 39.33191 -106.93739 10472 ft 205 kts 131°
2026-04-27 20:55 39.32240 -106.92357 10084 ft 208 kts 131°
2026-04-27 20:56 39.31199 -106.91149 9949 ft 198 kts 153°
2026-04-27 20:56 39.29946 -106.90535 9902 ft 187 kts 160°
2026-04-27 20:56 39.28708 -106.89939 9488 ft 200 kts 160°
2026-04-27 20:56 39.27351 -106.89327 8977 ft 208 kts 163°
2026-04-27 20:57 39.25997 -106.88747 8425 ft 203 kts 156°
2026-04-27 20:57 39.24811 -106.88051 7939 ft 174 kts 156°
2026-04-27 20:57 39.23729 -106.87584 7792 ft 165 kts 158°
2026-04-27 20:57 39.22708 -106.87067 7730 ft 123 kts 154°
2026-04-27 20:58 39.22198 -106.86835 7772 ft 27 kts 157°
2026-04-27 20:58 39.22176 -106.86823 7774 ft 0 kts 158°
2026-04-27 20:58 39.22109 -106.86789 7780 ft 16 kts 158°
2026-04-27 20:58 39.22026 -106.86740 7789 ft 9 kts 129°
2026-04-27 20:59 39.22049 -106.86647 7786 ft 16 kts 13°
2026-04-27 20:59 39.22179 -106.86694 7774 ft 22 kts 343°
2026-04-27 20:59 39.22319 -106.86750 7761 ft 19 kts 339°
2026-04-27 20:59 39.22467 -106.86826 7748 ft 25 kts 338°
2026-04-27 21:00 39.22566 -106.86877 7740 ft 12 kts 339°
2026-04-27 21:00 39.22656 -106.86890 7733 ft 11 kts 43°
2026-04-27 21:00 39.22661 -106.86848 7733 ft 0 kts 143°